Simultaneous Nadir Overpasses (SNOs) Predictions

Prediction of SNOs between AQUA and METOP-B Satellite Orbit:

Table of predicted SNOs for the next 14.0 days since TLE Epoch: 2/22/2020
Index Date (AQUA) Time (AQUA) Lat,Lon (AQUA) SZA (AQUA ) Date (METOP-B) Time (METOP-B) Lat,Lon (METOP-B) SZA (METOP-B ) Distance(km) Time Diff (sec)
1 02/22/2020 11:05:16 -73.80,-172.05 95.80 02/22/2020 11:04:48 -73.80,-171.94 95.79 3.35 28
2 02/22/2020 11:54:44 73.86, -4.53 84.26 02/22/2020 11:55:27 73.83, -4.55 84.22 3.15 43
3 02/25/2020 06:39:33 -73.80,-105.62 96.83 02/25/2020 06:39:12 -73.77,-105.61 96.85 3.24 21
4 02/25/2020 07:29:01 73.86, 61.89 83.23 02/25/2020 07:29:50 73.85, 61.90 83.20 1.71 49
5 02/28/2020 01:24:12 73.20, 154.45 81.48 02/28/2020 01:23:05 73.18, 152.12 81.58 74.91 67
6 02/28/2020 02:13:50 -73.81, -39.21 97.88 02/28/2020 02:13:35 -73.79, -39.16 97.90 2.71 15
7 02/28/2020 03:03:18 73.87, 128.30 82.18 02/28/2020 03:04:13 73.86, 128.35 82.16 1.91 55
8 03/01/2020 20:58:33 73.48,-139.69 80.71 03/01/2020 20:57:23 73.40,-140.99 80.70 42.08 70
9 03/01/2020 21:48:05 -73.78, 27.31 98.99 03/01/2020 21:47:57 -73.81, 27.28 98.96 3.39 8
10 03/01/2020 22:37:34 73.89,-165.31 81.13 03/01/2020 22:38:35 73.88,-165.21 81.10 3.37 61
11 03/04/2020 16:32:54 73.72, -73.76 79.87 03/04/2020 16:31:41 73.66, -73.98 79.85 9.13 73
12 03/04/2020 17:22:22 -73.80, 93.69 100.05 03/04/2020 17:22:20 -73.82, 93.72 100.03 2.20 2




NCC Satellite Simultaneous Nadir Overpasses (SNOs) Prediction Service
